Flag for U.S.A. Weather past 2 weeks in Harrisburg, Pennsylvania, U.S.A.

Now
46 °F

Clear.


Feels Like: 43 °F
Forecast: 43 / 70 °F
Wind: 6 mph from West

Location: Capital City Airport

Current Time: May 23, 2015 at 5:07:17 AM

Latest Report: May 23, 2015 at 3:56 AM


Visibility: 10 mi

Pressure: 30.32 "Hg

Humidity: 50%

Dew point: 28 °F

Location of HarrisburgLocation

Historic Weather in Harrisburg — Graph

°F

Harrisburg temperature yesterday

Maximum temperature yesterday: 72 °F (at 1:56 PM)
Minimum temperature yesterday: 48 °F (at 5:56 AM)
Average temperature yesterday: 62 °F

Past Weeks' High & Low Weather Summary

 TemperatureHumidityPressure
High88 °F (May 18, 3:56 PM)97% (May 18, 4:56 AM)30.46 "Hg (May 18, 4:56 AM)
Low44 °F (May 14, 5:56 AM)20% (May 22, 8:56 PM)29.81 "Hg (May 19, 5:56 PM)
Average67 °F62%30.10 "Hg
* Reported May 8 3:56 AM — May 23 3:56 AM, Harrisburg, Weather by CustomWeather, © 2015

Note: Actual official high and low records may vary slightly from our data, if they occured in-between our weather recording intervals... More about our weather records

Advertising

Harrisburg weather history for previous 24 hours

 ConditionsComfort  
Time TempWeatherWind HumidityBarometerVisibility
3:56 AM
Sat, May 23
46 °FClear.6 mph50%30.32 "Hg10 mi
2:56 AM47 °FClear.5 mph50%30.30 "Hg10 mi
1:56 AM52 °FClear.7 mph45%30.30 "Hg10 mi
12:56 AM57 °FClear.12 mph37%30.27 "Hg10 mi
11:56 PM
Fri, May 22
58 °FClear.6 mph31%30.25 "Hg10 mi
10:56 PM61 °FClear.14 mph23%30.21 "Hg10 mi
9:56 PM63 °FClear.14 mph21%30.18 "Hg10 mi
8:56 PM66 °FSunny.13 mph20%30.13 "Hg10 mi
7:56 PM68 °FPassing clouds.16 mph22%30.09 "Hg10 mi
6:56 PM71 °FScattered clouds.18 mph25%30.05 "Hg10 mi
5:56 PM71 °FScattered clouds.16 mph34%30.04 "Hg10 mi
4:56 PM72 °FScattered clouds.17 mph31%30.03 "Hg10 mi
3:56 PM71 °FScattered clouds.14 mph32%30.02 "Hg10 mi
2:56 PM71 °FPartly sunny.20 mph31%30.03 "Hg10 mi
1:56 PM72 °FScattered clouds.20 mph34%30.02 "Hg10 mi
12:56 PM71 °FScattered clouds.16 mph35%30.02 "Hg10 mi
11:56 AM70 °FSunny.17 mph35%30.04 "Hg10 mi
10:56 AM67 °FSunny.12 mph37%30.04 "Hg10 mi
9:56 AM64 °FSunny.15 mph43%30.04 "Hg10 mi
8:56 AM59 °FSunny.10 mph51%30.03 "Hg10 mi
7:56 AM55 °FSunny.10 mph59%30.03 "Hg10 mi
6:56 AM51 °FSunny.8 mph66%30.01 "Hg10 mi
5:56 AM48 °FClear.6 mph74%30.00 "Hg10 mi
Weather by CustomWeather, © 2015

See weather overviewHow to use our weather pages